Location: Burbank
(38.7788°N, 114.0429°W)
Time: 05:20:38
(UTC+00:00)

Tiros 1 despin weight - Pass Details

Date: 18 May 2026
Orbit: 554 x 591 km, 48.2° (Epoch: 7 June)

Event Time Altitude Azimuth Distance (km) Brightness Sun altitude
Exits shadow 10:27:53 30° 172° (S) 1,031 ? -18.7°
Maximum altitude 10:29:01 35° 139° (SE) 915 ? -18.5°
Drops below altitude 10° 10:32:54 10° 72° (ENE) 1,855 ? -18.0°
Sets 10:35:16 0° 64° (ENE) 2,748 ? -17.6°
